Simultaneous Nadir Overpasses (SNOs) Predictions

Prediction of SNOs between FY3D and METOP-C Satellite Orbit:

Table of predicted SNOs for the next 14.0 days since TLE Epoch: 9/3/2023
Index Date (FY3D) Time (FY3D) Lat,Lon (FY3D) SZA (FY3D ) Date (METOP-C) Time (METOP-C) Lat,Lon (METOP-C) SZA (METOP-C ) Distance(km) Time Diff (sec)
1 09/06/2023 06:18:54 -75.59, -99.04 110.98 09/06/2023 06:20:02 -75.54, -96.60 111.06 67.72 68
2 09/06/2023 07:09:36 75.38, 68.92 68.83 09/06/2023 07:10:47 75.34, 70.12 68.77 34.25 71
3 09/06/2023 08:00:17 -75.20,-123.20 111.36 09/06/2023 08:01:31 -75.19,-123.01 111.38 5.47 74
4 09/06/2023 08:51:03 75.18, 44.17 68.64 09/06/2023 08:52:12 75.18, 44.29 68.63 3.50 69
5 09/06/2023 09:41:48 -75.18,-148.52 111.35 09/06/2023 09:42:53 -75.16,-148.42 111.37 3.46 65
6 09/06/2023 10:32:34 75.16, 18.84 68.64 09/06/2023 10:33:34 75.15, 18.88 68.63 1.33 60
7 09/06/2023 11:23:19 -75.16,-173.85 111.35 09/06/2023 11:24:15 -75.14,-173.83 111.37 2.52 56
8 09/06/2023 12:14:05 75.14, -6.48 68.65 09/06/2023 12:14:56 75.13, -6.53 68.64 1.91 51
9 09/06/2023 13:04:50 -75.14, 160.83 111.34 09/06/2023 13:05:36 -75.16, 160.90 111.32 3.05 46
10 09/06/2023 13:55:36 75.12, -31.81 68.66 09/06/2023 13:56:17 75.15, -31.80 68.69 3.27 41
11 09/06/2023 14:46:21 -75.12, 135.50 111.33 09/06/2023 14:46:58 -75.14, 135.49 111.32 1.61 37
12 09/06/2023 15:37:08 75.15, -57.28 68.72 09/06/2023 15:37:39 75.13, -57.21 68.69 3.27 31
13 09/06/2023 16:27:52 -75.11, 110.18 111.32 09/06/2023 16:28:20 -75.12, 110.08 111.32 2.83 28
14 09/06/2023 17:18:39 75.13, -82.60 68.72 09/06/2023 17:19:01 75.10, -82.62 68.69 3.35 22
15 09/06/2023 18:09:24 -75.14, 84.71 111.27 09/06/2023 18:09:41 -75.14, 84.81 111.27 2.94 17
16 09/06/2023 19:00:10 75.12,-107.93 68.73 09/06/2023 19:00:22 75.13,-107.89 68.74 1.74 12
17 09/06/2023 19:50:55 -75.12, 59.38 111.26 09/06/2023 19:51:03 -75.12, 59.40 111.26 0.58 8
18 09/06/2023 20:41:41 75.10,-133.25 68.74 09/06/2023 20:41:44 75.10,-133.30 68.74 1.47 3
19 09/06/2023 21:32:26 -75.10, 34.06 111.25 09/06/2023 21:32:25 -75.09, 33.99 111.26 2.04 1
20 09/06/2023 22:23:12 75.08,-158.58 68.75 09/06/2023 22:23:06 75.08,-158.71 68.75 3.68 6
21 09/06/2023 23:13:57 -75.08, 8.73 111.25 09/06/2023 23:13:46 -75.12, 8.72 111.21 3.80 11
22 09/07/2023 00:04:44 75.11, 175.96 68.80 09/07/2023 00:04:27 75.10, 176.02 68.80 2.00 17
23 09/07/2023 00:55:29 -75.11, -16.73 111.19 09/07/2023 00:55:08 -75.09, -16.68 111.21 2.48 21
24 09/07/2023 01:46:15 75.09, 150.63 68.81 09/07/2023 01:45:49 75.08, 150.61 68.80 1.33 26
25 09/07/2023 02:37:00 -75.09, -42.06 111.18 09/07/2023 02:36:30 -75.07, -42.09 111.20 2.90 30
26 09/07/2023 03:27:46 75.07, 125.30 68.82 09/07/2023 03:27:11 75.06, 125.21 68.80 3.42 35
27 09/07/2023 04:18:31 -75.07, -67.38 111.17 09/07/2023 04:17:51 -75.09, -67.36 111.16 2.02 40
28 09/07/2023 05:09:17 75.06, 99.98 68.82 09/07/2023 05:08:32 75.08, 99.93 68.85 3.03 45
29 09/07/2023 06:00:02 -75.06, -92.71 111.17 09/07/2023 05:59:13 -75.07, -92.77 111.15 2.25 49
30 09/07/2023 06:50:49 75.08, 74.51 68.88 09/07/2023 06:49:54 75.06, 74.53 68.85 3.21 55
31 09/07/2023 07:41:34 -75.08,-118.17 111.11 09/07/2023 07:40:34 -75.09,-118.04 111.10 3.81 60
32 09/07/2023 08:32:20 75.07, 49.19 68.89 09/07/2023 08:31:15 75.08, 49.25 68.90 2.44 65
33 09/07/2023 09:23:05 -75.07,-143.50 111.10 09/07/2023 09:21:56 -75.07,-143.45 111.10 1.37 69
34 09/07/2023 10:13:51 75.05, 23.86 68.90 09/07/2023 10:12:37 75.06, 23.85 68.91 0.91 74
35 09/07/2023 11:04:34 -74.95,-168.55 111.19 09/07/2023 11:03:20 -74.95,-169.13 111.19 16.84 74
36 09/07/2023 11:55:15 74.70, -0.51 68.56 09/07/2023 11:54:06 74.69, -2.50 68.58 58.50 69
37 09/07/2023 12:45:57 -74.55, 167.20 111.58 09/07/2023 12:44:50 -74.54, 164.41 111.56 82.59 67



Historial Predications of SNOs between FY3D and METOP-C
